[[{"header":{"parameterUnit":"m.s-1","parameterCategory":1,"la1":30.2991,"la2":30.254,"lo1":-89.0895,"lo2":-89.0444,"dy":0.0017,"dx":0.0017,"nx":28,"ny":28,"refTime":"2023-06-27T21:00:00:Z","depth":0,"parameterNumber":2,"parameterNumberName":"U-component_of_WINDS"},"data":[0,0,0,0,0,0,0,0,0,0,0,0,0,0,0,0,0,0,0,0,0,0,0,0,0,0,0,0,0,0,0,0,0,0,0,0,0,0,0,0,0,0,0,0,0,0,0,0,0,0,0,0,0,0,0,0,0,0,1.3905,1.3903,0,1.3737,1.3736,1.3734,1.3542,1.3539,1.3536,1.3533,1.3361,1.3359,1.3357,0,0,0,0,0,0,0,0,0,0,0,0,0,1.4059,1.4057,1.3905,1.3903,1.3901,1.3738,1.3735,1.3733,1.3542,1.3539,1.3535,1.3532,1.3361,1.3359,1.3357,0,0,0,0,0,0,0,0,0,0,0,0,0,1.3952,1.4056,1.3905,1.3786,1.3774,1.3738,1.3735,1.3733,1.3543,1.3539,1.3534,1.353,1.3362,1.3359,1.3356,1.3425,0,0,1.3347,1.3346,0,0,0,0,0,0,0,0,1.3958,1.3946,1.3806,1.3794,1.378,1.3656,1.3726,1.3629,1.3544,1.3631,1.3533,1.3528,1.3462,1.3451,1.3429,1.3417,1.3409,1.3347,1.3345,1.3344,1.3343,0,0,0,0,0,0,0,1.3966,1.3953,1.3839,1.3804,1.3788,1.374,1.3721,1.3707,1.3573,1.3623,1.3608,1.3591,1.3454,1.3432,1.3423,1.3407,1.3347,1.3345,1.3343,1.3342,1.3442,1.3447,0,0,0,0,0,0,1.3991,1.396,1.3844,1.3834,1.386,1.3741,1.3719,1.37,1.3572,1.3548,1.3595,1.3583,1.3439,1.3427,1.3417,1.3488,1.3344,1.3342,1.334,1.3438,1.3443,1.3448,0,0,0,0,0,0,1.3995,1.3983,1.3851,1.3893,1.3872,1.3743,1.3724,1.3699,1.3676,1.3551,1.3526,1.3597,1.3435,1.3421,1.3424,1.3479,1.334,1.3338,1.3433,1.344,1.3446,1.3632,0,0,0,0,0,0,1.4001,1.3985,1.401,1.3895,1.3871,1.3862,1.3727,1.3699,1.3672,1.3655,1.3546,1.3524,1.3431,1.343,1.3422,1.3473,1.3335,1.3427,1.3436,1.3444,1.362,1.3644,1.3665,0,0,0,0,0,1.4007,1.4069,1.4012,1.3999,1.3899,1.3865,1.3851,1.3743,1.3678,1.3701,1.3621,1.3528,1.3475,1.3432,1.3421,1.3472,1.3423,1.3433,1.3443,1.361,1.364,1.3664,0,0,0,0,0,0,1.4193,1.4051,1.3987,1.4014,1.3953,1.3833,1.3859,1.3777,1.3733,1.3719,1.3586,1.3563,1.3583,1.3527,1.3482,1.3532,1.3436,1.3444,1.3567,1.3593,1.3615,1.3627,1.3333,0,0,0,0,0,1.4237,1.4222,1.4099,1.4134,1.4107,1.399,1.3971,1.3893,1.3824,1.3797,1.3717,1.3654,1.3623,1.3605,1.357,1.3612,1.3586,1.3642,1.3665,1.3683,1.3692,1.371,1.3734,1.3481,1.3481,1.348,0,0,1.4328,1.4249,1.4247,1.417,1.4114,1.4101,1.3969,1.396,1.3949,1.3795,1.3794,1.3734,1.3654,1.3678,1.3684,1.3633,1.3756,1.3696,1.3712,1.3709,1.3723,1.3747,1.3768,1.3487,1.3486,1.3485,0,0,1.4487,1.4426,1.4449,1.4396,1.4313,1.4234,1.424,1.4133,1.4087,1.4083,1.3968,1.3953,1.3903,1.3851,1.3818,1.3961,1.3873,1.3953,1.4068,1.4088,1.4108,1.4124,1.4175,1.4194,1.3962,1.3962,1.3963,0,1.461,1.4586,1.4471,1.447,1.4439,1.4301,1.4323,1.4277,1.4187,1.4169,1.4113,1.4047,1.3984,1.3994,1.4029,1.4008,1.401,1.3964,1.4114,1.413,1.4144,1.419,1.421,1.3973,1.3971,1.397,1.3969,0,1.4741,1.4727,1.4755,1.4673,1.4645,1.4656,1.4543,1.4529,1.4454,1.4382,1.4381,1.4301,1.4247,1.4244,1.417,1.4244,1.4214,1.4139,1.4039,1.418,1.4222,1.4239,1.3987,1.3984,1.3981,1.3978,0,0,1.501,1.4865,1.4877,1.4839,1.4738,1.4724,1.473,1.4678,1.4669,1.4612,1.4613,1.4575,1.4504,1.4467,1.4387,1.4405,1.4522,1.4326,1.4322,1.4364,1.4598,1.4655,1.4677,1.4465,1.4468,1.447,1.4604,0,1.515,1.515,1.5047,1.5076,1.5061,1.4931,1.4935,1.4875,1.4808,1.4786,1.4711,1.4686,1.4595,1.4572,1.4584,1.4506,1.4567,1.4495,1.4463,1.4464,1.4486,1.4699,1.4758,1.4888,1.462,1.4622,1.4624,0,1.5311,1.5265,1.5294,1.5193,1.5183,1.5189,1.5133,1.5114,1.5043,1.4993,1.4954,1.4863,1.4861,1.4769,1.4764,1.4717,1.4699,1.4659,1.4661,1.4652,1.4551,1.4695,1.4927,1.4947,1.4649,1.4647,1.4645,0,1.5504,1.5449,1.5458,1.5429,1.5312,1.532,1.5271,1.5196,1.5172,1.5124,1.5107,1.506,1.5034,1.4999,1.4899,1.4841,1.4906,1.4805,1.4864,1.4867,1.4881,1.4881,1.5113,1.4873,1.4873,1.4872,1.4872,0,1.5669,1.5691,1.5543,1.5549,1.557,1.5452,1.5476,1.5415,1.535,1.5341,1.5227,1.5221,1.5089,1.5069,1.4991,1.4999,1.4988,1.4947,1.4926,1.4956,1.4962,1.4941,1.4928,1.4877,1.4876,1.4875,1.4874,0,1.5886,1.5788,1.5789,1.568,1.5653,1.5673,1.5579,1.558,1.5507,1.5498,1.5489,1.5375,1.5346,1.5243,1.5187,1.5135,1.5167,1.5127,1.5191,1.5177,1.5241,1.5236,1.5466,1.549,1.5238,1.524,1.5242,0,1.5997,1.6011,1.5904,1.589,1.5847,1.5827,1.5802,1.5688,1.5667,1.5588,1.5599,1.5561,1.5523,1.5483,1.5395,1.5352,1.5309,1.5393,1.5302,1.5332,1.5309,1.5308,1.5309,1.5412,1.5415,1.5418,1.542,0,1.6204,1.6155,1.6124,1.6077,1.6051,1.6009,1.5959,1.5955,1.5827,1.581,1.5779,1.5751,1.5695,1.5658,1.5602,1.5552,1.5465,1.545,1.5461,1.5491,1.5528,1.5508,1.5243,1.5444,1.5442,1.544,1.5439,1.5438,1.6369,1.6376,1.6302,1.6272,1.6223,1.618,1.6175,1.6103,1.6076,1.6022,1.5957,1.5934,1.5863,1.5779,1.5736,1.5716,1.5668,1.5685,1.5689,1.5694,1.5709,1.5534,1.5706,1.5705,1.5704,1.5704,1.5703,0,1.6569,1.6516,1.649,1.6424,1.6401,1.6323,1.6265,1.625,1.6232,1.6174,1.6141,1.6106,1.607,1.5981,1.5937,1.5938,1.5898,1.593,1.5928,1.5918,1.5754,1.5748,1.5964,1.5964,1.5964,1.5964,1.5964,1.5964,1.667,1.6677,1.662,1.6602,1.6548,1.6525,1.6499,1.6459,1.6412,1.6378,1.6349,1.6291,1.6221,1.6171,1.6135,1.611,1.6098,1.6144,1.6106,1.5954,1.5929,1.5905,1.5899,1.6143,1.6143,1.627,1.6271,1.6272]},{"header":{"parameterUnit":"m.s-1","parameterCategory":1,"la1":30.2991,"la2":30.254,"lo1":-89.0895,"lo2":-89.0444,"dy":0.0017,"dx":0.0017,"nx":28,"ny":28,"refTime":"2023-06-27T21:00:00:Z","depth":0,"parameterNumber":3,"parameterNumberName":"V-component_of_WINDS"},"data":[0,0,0,0,0,0,0,0,0,0,0,0,0,0,0,0,0,0,0,0,0,0,0,0,0,0,0,0,0,0,0,0,0,0,0,0,0,0,0,0,0,0,0,0,0,0,0,0,0,0,0,0,0,0,0,0,0,0,-1.1667,-1.1667,0,-1.1626,-1.1626,-1.1626,-1.1698,-1.17,-1.1703,-1.1705,-1.1654,-1.165,-1.1647,0,0,0,0,0,0,0,0,0,0,0,0,0,-1.1801,-1.1798,-1.1668,-1.1667,-1.1667,-1.1627,-1.1626,-1.1625,-1.1697,-1.17,-1.1703,-1.1706,-1.1655,-1.1651,-1.1646,0,0,0,0,0,0,0,0,0,0,0,0,0,-1.1749,-1.1797,-1.1668,-1.1698,-1.17,-1.1627,-1.1626,-1.1625,-1.1697,-1.17,-1.1704,-1.1707,-1.1656,-1.1651,-1.1646,-1.1538,0,0,-1.1629,-1.1626,0,0,0,0,0,0,0,0,-1.1752,-1.1744,-1.1694,-1.1696,-1.1698,-1.1671,-1.1654,-1.1596,-1.1696,-1.1698,-1.1705,-1.1709,-1.1656,-1.1651,-1.1635,-1.1536,-1.1533,-1.1628,-1.1625,-1.1623,-1.1621,0,0,0,0,0,0,0,-1.1756,-1.1747,-1.1651,-1.1693,-1.1696,-1.1711,-1.1708,-1.1644,-1.1656,-1.1698,-1.1703,-1.1698,-1.1658,-1.164,-1.1634,-1.1533,-1.1629,-1.1624,-1.162,-1.1618,-1.1342,-1.1338,0,0,0,0,0,0,-1.1757,-1.1749,-1.1652,-1.165,-1.1735,-1.1706,-1.1702,-1.1676,-1.1657,-1.1658,-1.1695,-1.1701,-1.1647,-1.164,-1.1632,-1.1503,-1.1623,-1.1618,-1.1614,-1.1346,-1.1341,-1.1336,0,0,0,0,0,0,-1.1759,-1.1747,-1.1654,-1.1701,-1.169,-1.17,-1.1669,-1.1673,-1.1655,-1.1655,-1.1657,-1.1674,-1.165,-1.164,-1.1561,-1.1502,-1.1615,-1.161,-1.135,-1.1344,-1.1339,-1.1245,0,0,0,0,0,0,-1.1763,-1.1748,-1.1709,-1.17,-1.1688,-1.1585,-1.1666,-1.167,-1.1647,-1.1655,-1.1636,-1.1637,-1.1652,-1.1569,-1.1556,-1.1497,-1.1606,-1.1356,-1.1348,-1.134,-1.1253,-1.1236,-1.1222,0,0,0,0,0,-1.1767,-1.1682,-1.1706,-1.1694,-1.1639,-1.1582,-1.1575,-1.1597,-1.1642,-1.1601,-1.1601,-1.1637,-1.1512,-1.156,-1.1546,-1.1485,-1.1359,-1.135,-1.1341,-1.126,-1.124,-1.1222,0,0,0,0,0,0,-1.168,-1.1681,-1.1708,-1.1618,-1.16,-1.1594,-1.1543,-1.1575,-1.154,-1.1549,-1.1576,-1.1571,-1.1485,-1.1478,-1.1532,-1.1379,-1.1443,-1.143,-1.1386,-1.1367,-1.1351,-1.1353,-1.1601,0,0,0,0,0,-1.1652,-1.1608,-1.161,-1.153,-1.152,-1.1533,-1.1509,-1.1529,-1.1509,-1.1501,-1.1495,-1.1472,-1.1428,-1.1398,-1.1357,-1.1254,-1.1249,-1.1205,-1.1189,-1.1177,-1.1164,-1.1106,-1.1086,-1.1306,-1.1306,-1.1307,0,0,-1.159,-1.1585,-1.1555,-1.1513,-1.1501,-1.1452,-1.1526,-1.1471,-1.1434,-1.1491,-1.1416,-1.1412,-1.1388,-1.1297,-1.1256,-1.1287,-1.1103,-1.1165,-1.1155,-1.1149,-1.1095,-1.1074,-1.1055,-1.13,-1.1301,-1.1302,0,0,-1.1451,-1.1445,-1.1377,-1.1364,-1.1347,-1.1357,-1.134,-1.1331,-1.133,-1.1257,-1.1298,-1.1254,-1.1178,-1.1159,-1.1139,-1.0996,-1.1027,-1.0983,-1.0899,-1.0843,-1.0825,-1.081,-1.0755,-1.0736,-1.0971,-1.0971,-1.0971,0,-1.1375,-1.1306,-1.1337,-1.128,-1.1259,-1.1313,-1.1242,-1.1228,-1.1196,-1.1179,-1.1217,-1.1122,-1.111,-1.1014,-1.0979,-1.0963,-1.0942,-1.0982,-1.0826,-1.0811,-1.0797,-1.0745,-1.0725,-1.0965,-1.0966,-1.0966,-1.0967,0,-1.1212,-1.1163,-1.111,-1.1082,-1.1055,-1.0992,-1.1011,-1.098,-1.1002,-1.1007,-1.0931,-1.092,-1.0877,-1.0856,-1.0876,-1.0762,-1.0782,-1.0822,-1.0886,-1.077,-1.0721,-1.0702,-1.0957,-1.0959,-1.0961,-1.0962,0,0,-1.1013,-1.1005,-1.0984,-1.0972,-1.0958,-1.0919,-1.0858,-1.0819,-1.0791,-1.0768,-1.0714,-1.065,-1.0688,-1.0666,-1.0685,-1.0636,-1.052,-1.0682,-1.0682,-1.0649,-1.0389,-1.0355,-1.0332,-1.0543,-1.0539,-1.0536,-1.039,0,-1.0873,-1.0769,-1.0796,-1.0691,-1.0645,-1.0697,-1.0644,-1.0627,-1.0631,-1.0591,-1.0595,-1.0547,-1.0603,-1.0589,-1.0544,-1.0543,-1.0467,-1.0555,-1.0488,-1.0485,-1.0488,-1.0307,-1.0271,-1.0133,-1.0371,-1.0368,-1.0366,0,-1.0694,-1.0667,-1.0559,-1.0552,-1.0534,-1.0485,-1.0452,-1.0414,-1.0396,-1.0402,-1.0379,-1.0408,-1.0344,-1.0413,-1.0324,-1.0383,-1.0358,-1.0354,-1.0349,-1.0339,-1.0415,-1.0288,-1.009,-1.0067,-1.0337,-1.0339,-1.0341,0,-1.0555,-1.0492,-1.0419,-1.0407,-1.0398,-1.0362,-1.0356,-1.0343,-1.0318,-1.0289,-1.0272,-1.0235,-1.0213,-1.0182,-1.0199,-1.0249,-1.0106,-1.0177,-1.0105,-1.0104,-1.0068,-1.0069,-0.9858,-1.006,-1.006,-1.0061,-1.0061,0,-1.0392,-1.0322,-1.0356,-1.031,-1.0233,-1.0265,-1.0187,-1.0188,-1.0176,-1.0129,-1.0172,-1.0127,-1.0155,-1.011,-1.0124,-1.0046,-1.0036,-1.0037,-1.004,-1.003,-1.0029,-1.001,-1.0018,-1.0055,-1.0057,-1.0058,-1.0058,0,-1.0221,-1.0241,-1.0164,-1.0164,-1.0162,-1.0105,-1.0103,-1.0059,-1.0069,-1.0009,-0.9996,-1.0009,-0.9959,-0.9975,-0.9921,-0.993,-0.983,-0.9848,-0.9836,-0.9839,-0.9765,-0.9769,-0.953,-0.9498,-0.9725,-0.9723,-0.9721,0,-1.0113,-1.0061,-1.0057,-1.003,-1.0022,-0.9978,-0.9954,-0.9984,-0.9957,-0.9934,-0.9892,-0.9847,-0.9812,-0.9731,-0.9732,-0.9691,-0.9705,-0.9625,-0.9699,-0.969,-0.9699,-0.9699,-0.9693,-0.9608,-0.9605,-0.9603,-0.9601,0,-0.9919,-0.9932,-0.9897,-0.9865,-0.9835,-0.9811,-0.979,-0.9765,-0.9794,-0.9761,-0.9713,-0.9686,-0.9633,-0.9586,-0.9549,-0.954,-0.9573,-0.9579,-0.9559,-0.9545,-0.9539,-0.9537,-0.979,-0.9583,-0.9585,-0.9586,-0.9587,-0.9588,-0.9773,-0.9729,-0.9719,-0.9677,-0.9666,-0.9646,-0.9605,-0.961,-0.9572,-0.9532,-0.9553,-0.9496,-0.9479,-0.9434,-0.942,-0.9374,-0.9405,-0.9377,-0.9369,-0.9361,-0.9349,-0.9551,-0.9368,-0.9369,-0.9369,-0.937,-0.937,0,-0.9577,-0.9574,-0.9537,-0.9507,-0.9475,-0.9515,-0.9495,-0.9463,-0.9414,-0.9398,-0.9364,-0.9307,-0.9263,-0.9264,-0.9222,-0.9184,-0.9198,-0.9172,-0.9172,-0.9168,-0.9327,-0.9346,-0.9161,-0.9161,-0.9161,-0.9161,-0.9161,-0.9161,-0.947,-0.9397,-0.9409,-0.933,-0.9327,-0.9274,-0.9258,-0.9239,-0.9226,-0.9162,-0.9127,-0.913,-0.9119,-0.9077,-0.9037,-0.9039,-0.9018,-0.8985,-0.8991,-0.9137,-0.9158,-0.9177,-0.9195,-0.8982,-0.8982,-0.8836,-0.8835,-0.8834]}]]